This is the latest recevied weather packets stored in our database for station/object SP5MRF. If no packets are shown the sender has not sent any weather packets the latest 1 day(s).
| Time | Temp. | Humidity | Pressure | Rain* | Wind** | Luminosity | Snow |
|---|---|---|---|---|---|---|---|
| 1778003396 | 23.89° C | 30% | 1000.9 hPa | 0 mm | 0 m/s | - | - |
| 1778002918 | 23.89° C | 30% | 1000.9 hPa | 0 mm | 0 m/s | - | - |
| 1778002437 | 23.89° C | 29% | 1001.1 hPa | 0 mm | 0 m/s | - | - |
| 1778001957 | 23.89° C | 29% | 1000.9 hPa | 0 mm | 0 m/s | - | - |
| 1778001476 | 24.44° C | 29% | 1001.2 hPa | 0 mm | 0 m/s | - | - |
| 1778000998 | 24.44° C | 29% | 1001 hPa | 0 mm | 0 m/s | - | - |
| 1778000516 | 25° C | 29% | 1001.2 hPa | 0 mm | 0 m/s | - | - |
| 1778000036 | 25° C | 28% | 1001.1 hPa | 0 mm | 0 m/s | - | - |
| 1777999556 | 25° C | 28% | 1001.2 hPa | 0 mm | 0 m/s | - | - |
| 1777999076 | 25.56° C | 28% | 1001.5 hPa | 0 mm | 0 m/s | - | - |
| 1777998597 | 25.56° C | 27% | 1001.4 hPa | 0 mm | 0 m/s | - | - |
| 1777998116 | 26.11° C | 27% | 1001.4 hPa | 0 mm | 0 m/s | - | - |
| 1777997637 | 26.11° C | 27% | 1001.4 hPa | 0 mm | 0 m/s | - | - |
| 1777997158 | 26.11° C | 26% | 1001.4 hPa | 0 mm | 0 m/s | - | - |
| 1777996677 | 26.11° C | 26% | 1001.7 hPa | 0 mm | 0 m/s | - | - |
| 1777996196 | 26.67° C | 26% | 1001.7 hPa | 0 mm | 0 m/s | - | - |
| 1777995716 | 26.67° C | 26% | 1001.8 hPa | 0 mm | 0 m/s | - | - |
| 1777995236 | 27.22° C | 26% | 1001.7 hPa | 0 mm | 0 m/s | - | - |
| 1777994276 | 26.67° C | 26% | 1001.8 hPa | 0 mm | 0 m/s | - | - |
| 1777993797 | 27.22° C | 27% | 1001.9 hPa | 0 mm | 0 m/s | - | - |
| 1777993318 | 27.22° C | 26% | 1001.8 hPa | 0 mm | 0 m/s | - | - |
| 1777992356 | 28.33° C | 27% | 1001.8 hPa | 0 mm | 0.89 m/s, 0° | - | - |
| 1777991877 | 28.33° C | 27% | 1001.8 hPa | 0 mm | 0.89 m/s, 0° | - | - |
| 1777991397 | 27.78° C | 28% | 1001.9 hPa | 0 mm | 0 m/s | - | - |
| 1777990917 | 27.78° C | 28% | 1002.1 hPa | 0 mm | 0 m/s | - | - |
* Rain latest hour (hover to see other rain measurements)
** Current wind speed in m/s (hover to see current wind gust speed)